LOT3FA EPWA-LUKK

Flight info

Callsign LOT3FA
Flight time N/A
Altitude 37000
Route XIMBA N195 NATEV DCT ROBTU DCT KENIN DCT KARIL DCT BUSES
Aircraft E195/M-SDE3GILORVW/S

Departure

Time 2026-05-04 15:56
Airport Warsaw Chopin Airport (EPWA)

Arrival

Time N/A
Airport Chişinău International Airport (LUKK)
Time Latitude Longitude Altitude Speed Heading
2026-05-04 15:17 52.17341 20.96545 337 ft 0 kts 207°
2026-05-04 15:27 52.17342 20.96545 337 ft 0 kts 207°
2026-05-04 15:31 52.17342 20.96546 337 ft 0 kts 207°
2026-05-04 15:41 52.17343 20.96546 337 ft 0 kts 207°
2026-05-04 15:46 52.17343 20.96547 337 ft 0 kts 207°
2026-05-04 15:49 52.17343 20.96546 337 ft 0 kts 207°
2026-05-04 15:50 52.17340 20.96544 337 ft 1 kts 207°
2026-05-04 15:50 52.17327 20.96531 337 ft 3 kts 214°
2026-05-04 15:50 52.17304 20.96501 337 ft 5 kts 207°
2026-05-04 15:50 52.17263 20.96510 333 ft 7 kts 159°
2026-05-04 15:51 52.17208 20.96556 337 ft 10 kts 152°
2026-05-04 15:51 52.17136 20.96619 337 ft 13 kts 152°
2026-05-04 15:51 52.17048 20.96696 334 ft 16 kts 151°
2026-05-04 15:51 52.16944 20.96785 337 ft 18 kts 152°
2026-05-04 15:52 52.16827 20.96885 336 ft 20 kts 153°
2026-05-04 15:52 52.16709 20.96992 337 ft 18 kts 146°
2026-05-04 15:52 52.16635 20.97153 336 ft 18 kts 114°
2026-05-04 15:52 52.16582 20.97339 335 ft 18 kts 115°
2026-05-04 15:53 52.16531 20.97527 333 ft 18 kts 114°
2026-05-04 15:53 52.16478 20.97714 334 ft 18 kts 115°
2026-05-04 15:53 52.16425 20.97901 336 ft 18 kts 114°
2026-05-04 15:53 52.16372 20.98089 334 ft 18 kts 115°
2026-05-04 15:54 52.16318 20.98278 337 ft 18 kts 114°
2026-05-04 15:54 52.16275 20.98429 337 ft 10 kts 118°
2026-05-04 15:54 52.16219 20.98461 337 ft 7 kts 196°
2026-05-04 15:54 52.16169 20.98424 337 ft 9 kts 205°
2026-05-04 15:55 52.16125 20.98352 336 ft 10 kts 258°
2026-05-04 15:55 52.16165 20.98174 335 ft 31 kts 295°
2026-05-04 15:55 52.16342 20.97540 334 ft 91 kts 295°
2026-05-04 15:55 52.16680 20.96335 336 ft 142 kts 295°
2026-05-04 15:56 52.17145 20.94721 549 ft 165 kts 292°
2026-05-04 15:56 52.17653 20.92966 1109 ft 177 kts 292°
2026-05-04 15:56 52.18148 20.91126 1836 ft 186 kts 288°
2026-05-04 15:56 52.18381 20.89003 2423 ft 196 kts 262°
2026-05-04 15:57 52.18068 20.86819 3085 ft 206 kts 255°
2026-05-04 15:57 52.17714 20.84471 3655 ft 226 kts 256°
2026-05-04 15:57 52.17335 20.81858 4225 ft 246 kts 257°
2026-05-04 15:57 52.16922 20.79075 4977 ft 258 kts 256°
2026-05-04 15:58 52.16494 20.76218 5819 ft 264 kts 255°
2026-05-04 15:58 52.15670 20.73572 6101 ft 267 kts 230°
2026-05-04 15:58 52.14117 20.71976 6250 ft 267 kts 198°
2026-05-04 15:58 52.12238 20.71780 7059 ft 275 kts 176°
2026-05-04 15:59 52.10402 20.72753 7955 ft 283 kts 156°
2026-05-04 15:59 52.08714 20.74457 8847 ft 287 kts 150°
2026-05-04 15:59 52.07051 20.76274 9719 ft 289 kts 151°
2026-05-04 15:59 52.05347 20.78092 10301 ft 301 kts 151°
2026-05-04 16:00 52.03560 20.80031 10805 ft 315 kts 149°
2026-05-04 16:00 52.01766 20.82139 11536 ft 322 kts 148°
2026-05-04 16:00 51.99930 20.84259 12349 ft 325 kts 148°
2026-05-04 16:00 51.98131 20.86427 13211 ft 328 kts 147°
2026-05-04 16:01 51.96283 20.88651 14050 ft 331 kts 148°
2026-05-04 16:01 51.94427 20.90897 14826 ft 335 kts 148°
2026-05-04 16:01 51.92549 20.93189 15616 ft 340 kts 147°
2026-05-04 16:01 51.90645 20.95538 16297 ft 346 kts 147°
2026-05-04 16:02 51.88730 20.97950 17030 ft 351 kts 147°
2026-05-04 16:02 51.86804 21.00422 17749 ft 356 kts 146°
2026-05-04 16:02 51.82909 21.05548 19062 ft 366 kts 144°
2026-05-04 16:03 51.80946 21.08190 19714 ft 370 kts 143°
2026-05-04 16:03 51.79641 21.09973 20141 ft 372 kts 142°
2026-05-04 16:03 51.77683 21.12740 20758 ft 376 kts 141°
2026-05-04 16:03 51.75674 21.15464 21312 ft 378 kts 148°
2026-05-04 16:04 51.73473 21.17834 21848 ft 383 kts 142°
2026-05-04 16:04 51.70117 21.26339 23163 ft 396 kts 113°
2026-05-04 16:04 51.69400 21.29119 23419 ft 400 kts 113°
2026-05-04 16:05 51.68329 21.33216 23903 ft 402 kts 114°
2026-05-04 16:05 51.67209 21.37364 24400 ft 405 kts 114°
2026-05-04 16:05 51.64161 21.44887 25357 ft 405 kts 146°
2026-05-04 16:06 51.61750 21.47235 25872 ft 404 kts 153°
2026-05-04 16:06 51.54322 21.53947 27231 ft 412 kts 153°
2026-05-04 16:07 51.51814 21.56198 27657 ft 414 kts 153°
2026-05-04 16:07 51.44277 21.63168 28758 ft 422 kts 151°
2026-05-04 16:08 51.41744 21.65574 29166 ft 424 kts 151°
2026-05-04 16:08 51.34070 21.72872 30265 ft 431 kts 151°
2026-05-04 16:09 51.28897 21.77805 30860 ft 435 kts 151°
2026-05-04 16:09 51.23671 21.82770 31420 ft 439 kts 151°
2026-05-04 16:10 51.18400 21.87756 31908 ft 442 kts 152°
2026-05-04 16:11 51.10424 21.95236 32746 ft 443 kts 150°
2026-05-04 16:11 51.07763 21.97721 33050 ft 442 kts 150°
2026-05-04 16:12 50.99819 22.05117 33984 ft 440 kts 151°
2026-05-04 16:12 50.91928 22.12436 34740 ft 439 kts 151°
2026-05-04 16:13 50.86422 22.16433 35060 ft 438 kts 173°
2026-05-04 16:13 50.80387 22.15947 35486 ft 434 kts 188°
2026-05-04 16:14 50.74383 22.14863 35990 ft 433 kts 188°
2026-05-04 16:14 50.68395 22.13783 36412 ft 433 kts 188°
2026-05-04 16:15 50.59460 22.12096 37093 ft 429 kts 188°
2026-05-04 16:16 50.53514 22.10999 37079 ft 438 kts 188°
2026-05-04 16:16 50.44274 22.09330 36974 ft 451 kts 188°
2026-05-04 16:17 50.38015 22.08198 36971 ft 453 kts 187°
2026-05-04 16:18 50.25452 22.05931 36991 ft 454 kts 187°
2026-05-04 16:19 50.09785 22.03120 36981 ft 453 kts 187°
2026-05-04 16:20 49.94196 22.00337 36993 ft 451 kts 187°
2026-05-04 16:22 49.78482 21.97558 36997 ft 459 kts 187°
2026-05-04 16:23 49.59438 21.94211 37017 ft 458 kts 187°
2026-05-04 16:25 49.40446 21.90901 37025 ft 461 kts 187°
2026-05-04 16:26 49.18121 21.87040 37026 ft 459 kts 187°
2026-05-04 16:28 49.02208 21.84313 37031 ft 463 kts 187°
2026-05-04 16:29 48.79882 21.83982 37041 ft 462 kts 172°
2026-05-04 16:31 48.63962 21.87152 37038 ft 463 kts 172°
2026-05-04 16:32 48.44817 21.90889 37042 ft 462 kts 173°
2026-05-04 16:33 48.32595 21.95698 37100 ft 456 kts 147°
2026-05-04 16:34 48.24464 22.03232 37040 ft 460 kts 147°
2026-05-04 16:35 48.07947 22.18305 37058 ft 464 kts 148°
2026-05-04 16:36 47.99700 22.25773 37046 ft 464 kts 148°
2026-05-04 16:37 47.91409 22.33253 37051 ft 464 kts 148°
2026-05-04 16:38 47.80657 22.43774 37065 ft 459 kts 128°
2026-05-04 16:39 47.77662 22.56825 37073 ft 449 kts 98°
2026-05-04 16:39 47.76506 22.65957 37050 ft 450 kts 98°
2026-05-04 16:40 47.74154 22.84248 37043 ft 451 kts 99°
2026-05-04 16:41 47.71156 23.07107 37044 ft 451 kts 99°
2026-05-04 16:43 47.68235 23.29040 37061 ft 452 kts 99°
2026-05-04 16:43 47.66394 23.42748 37061 ft 452 kts 99°
2026-05-04 16:45 47.62672 23.70193 37061 ft 452 kts 99°
2026-05-04 16:46 47.59533 23.92959 37057 ft 452 kts 100°